Location: London
(51.5074°N, 0.1278°W)
Time: 15:07:39
(UTC+01:00)

ISS - Pass Details

Date: 27 March 2018
Orbit: 403 x 406 km, 51.6° (Epoch: 22 April)

Event Time Altitude Azimuth Distance (km) Brightness Sun altitude
Rises 21:47:30 0° 254° (WSW) 2,331 0.6 -21.4°
Reaches altitude 10° 21:49:35 10° 253° (WSW) 1,472 -0.5 -21.6°
Enters shadow 21:51:45 38° 246° (WSW) 639 -2.7 -21.9°
